KQA601 HKJK-HKMO

Flight info

Callsign KQA601
Flight time 0h 45m
Altitude 29000
Route ATUDU1D UVOVA UQ135 NEREV NEREV3A
Aircraft B738/M-SDE1E2E3FGHIJ2J3J4J5M1RWXYZ/LB1D1

Departure

Time 2026-04-21 16:43
Airport Jomo Kenyatta International Airport (HKJK)

Arrival

Time 2026-04-21 17:28
Airport Moi International Airport (HKMO)
Time Latitude Longitude Altitude Speed Heading
2026-04-21 16:29 -1.32927 36.92646 5323 ft 0 kts 229°
2026-04-21 16:32 -1.32921 36.92653 5313 ft 4 kts 230°
2026-04-21 16:33 -1.32905 36.92675 5315 ft 4 kts 236°
2026-04-21 16:33 -1.32891 36.92698 5317 ft 4 kts 247°
2026-04-21 16:33 -1.32885 36.92722 5321 ft 4 kts 278°
2026-04-21 16:33 -1.32892 36.92738 5323 ft 1 kts 322°
2026-04-21 16:34 -1.32895 36.92740 5323 ft 2 kts 322°
2026-04-21 16:36 -1.32859 36.92711 5323 ft 13 kts 320°
2026-04-21 16:37 -1.32799 36.92635 5322 ft 15 kts 302°
2026-04-21 16:37 -1.32769 36.92550 5323 ft 15 kts 283°
2026-04-21 16:37 -1.32772 36.92443 5323 ft 18 kts 257°
2026-04-21 16:37 -1.32835 36.92315 5323 ft 24 kts 232°
2026-04-21 16:38 -1.32803 36.92210 5323 ft 20 kts 316°
2026-04-21 16:38 -1.32837 36.92089 5316 ft 22 kts 234°
2026-04-21 16:38 -1.32936 36.91954 5332 ft 25 kts 233°
2026-04-21 16:38 -1.32992 36.91815 5335 ft 20 kts 302°
2026-04-21 16:39 -1.32890 36.91743 5339 ft 20 kts 324°
2026-04-21 16:39 -1.32839 36.91706 5337 ft 0 kts 324°
2026-04-21 16:40 -1.32819 36.91692 5337 ft 12 kts 325°
2026-04-21 16:40 -1.32740 36.91670 5336 ft 10 kts 21°
2026-04-21 16:41 -1.32709 36.91706 5335 ft 10 kts 53°
2026-04-21 16:41 -1.32707 36.91707 5334 ft 0 kts 53°
2026-04-21 16:42 -1.32707 36.91708 5334 ft 1 kts 53°
2026-04-21 16:42 -1.32627 36.91818 5332 ft 53 kts 53°
2026-04-21 16:43 -1.32270 36.92307 5319 ft 119 kts 54°
2026-04-21 16:43 -1.31672 36.93129 5313 ft 172 kts 53°
2026-04-21 16:43 -1.30905 36.94049 6127 ft 161 kts 46°
2026-04-21 16:43 -1.30149 36.94895 6765 ft 170 kts 68°
2026-04-21 16:44 -1.29990 36.96083 7166 ft 187 kts 86°
2026-04-21 16:44 -1.29879 36.97461 7389 ft 210 kts 85°
2026-04-21 16:44 -1.29732 36.98993 7548 ft 233 kts 85°
2026-04-21 16:44 -1.29559 37.00671 7852 ft 247 kts 84°
2026-04-21 16:45 -1.29372 37.02392 8348 ft 253 kts 84°
2026-04-21 16:45 -1.29182 37.04085 8764 ft 263 kts 84°
2026-04-21 16:45 -1.28955 37.06062 9123 ft 281 kts 83°
2026-04-21 16:45 -1.28728 37.07993 10016 ft 281 kts 83°
2026-04-21 16:46 -1.28495 37.09962 10626 ft 291 kts 83°
2026-04-21 16:46 -1.28250 37.12027 10991 ft 308 kts 83°
2026-04-21 16:46 -1.28204 37.14217 11107 ft 332 kts 99°
2026-04-21 16:46 -1.29053 37.16392 11206 ft 340 kts 122°
2026-04-21 16:47 -1.30648 37.18172 11812 ft 345 kts 133°
2026-04-21 16:47 -1.32357 37.19854 12596 ft 346 kts 134°
2026-04-21 16:47 -1.34095 37.21538 13303 ft 349 kts 134°
2026-04-21 16:47 -1.35847 37.23237 13965 ft 353 kts 134°
2026-04-21 16:48 -1.37611 37.24954 14513 ft 357 kts 134°
2026-04-21 16:48 -1.39399 37.26703 15137 ft 360 kts 134°
2026-04-21 16:48 -1.41189 37.28463 15727 ft 363 kts 134°
2026-04-21 16:48 -1.42993 37.30238 16319 ft 366 kts 134°
2026-04-21 16:49 -1.44814 37.32032 16926 ft 369 kts 134°
2026-04-21 16:49 -1.46650 37.33842 17487 ft 372 kts 134°
2026-04-21 16:49 -1.48505 37.35672 18078 ft 375 kts 134°
2026-04-21 16:49 -1.50369 37.37511 18588 ft 379 kts 134°
2026-04-21 16:50 -1.52253 37.39370 19046 ft 382 kts 134°
2026-04-21 16:50 -1.54145 37.41238 19519 ft 384 kts 134°
2026-04-21 16:50 -1.56033 37.43102 19983 ft 387 kts 134°
2026-04-21 16:50 -1.57982 37.45026 20420 ft 391 kts 134°
2026-04-21 16:51 -1.59901 37.46920 20838 ft 394 kts 134°
2026-04-21 16:51 -1.61219 37.48221 21121 ft 396 kts 134°
2026-04-21 16:51 -1.63192 37.50168 21562 ft 399 kts 134°
2026-04-21 16:51 -1.65813 37.52757 22110 ft 403 kts 134°
2026-04-21 16:52 -1.67814 37.54732 22516 ft 406 kts 134°
2026-04-21 16:52 -1.69827 37.56720 22903 ft 409 kts 134°
2026-04-21 16:52 -1.71202 37.58078 23164 ft 411 kts 134°
2026-04-21 16:52 -1.73905 37.60747 23652 ft 414 kts 134°
2026-04-21 16:53 -1.75294 37.62119 23867 ft 416 kts 134°
2026-04-21 16:53 -1.77355 37.64154 24188 ft 418 kts 134°
2026-04-21 16:53 -1.79401 37.66181 24515 ft 420 kts 134°
2026-04-21 16:53 -1.81474 37.68246 24838 ft 422 kts 134°
2026-04-21 16:54 -1.83546 37.70314 25153 ft 424 kts 134°
2026-04-21 16:54 -1.85636 37.72400 25467 ft 425 kts 134°
2026-04-21 16:54 -1.87739 37.74499 25775 ft 427 kts 134°
2026-04-21 16:54 -1.89845 37.76601 26080 ft 429 kts 134°
2026-04-21 16:55 -1.91959 37.78710 26456 ft 429 kts 134°
2026-04-21 16:55 -1.94068 37.80815 26827 ft 429 kts 134°
2026-04-21 16:55 -1.96181 37.82923 27015 ft 433 kts 134°
2026-04-21 16:55 -1.98331 37.85067 27006 ft 439 kts 134°
2026-04-21 16:56 -2.00505 37.87237 27009 ft 444 kts 134°
2026-04-21 16:56 -2.02700 37.89426 27017 ft 448 kts 134°
2026-04-21 16:56 -2.04914 37.91635 27003 ft 453 kts 134°
2026-04-21 16:56 -2.07152 37.93868 26998 ft 453 kts 134°
2026-04-21 16:57 -2.09389 37.96099 27037 ft 455 kts 134°
2026-04-21 16:57 -2.11621 37.98325 27018 ft 451 kts 134°
2026-04-21 16:57 -2.13836 38.00534 26986 ft 450 kts 134°
2026-04-21 16:57 -2.16023 38.02717 26983 ft 451 kts 134°
2026-04-21 16:58 -2.18274 38.04962 26977 ft 452 kts 134°
2026-04-21 16:58 -2.20508 38.07192 26976 ft 452 kts 134°
2026-04-21 16:58 -2.22731 38.09410 26974 ft 453 kts 134°
2026-04-21 16:58 -2.24963 38.11639 26975 ft 455 kts 134°
2026-04-21 16:59 -2.27212 38.13883 26978 ft 459 kts 134°
2026-04-21 16:59 -2.29478 38.16145 26966 ft 463 kts 134°
2026-04-21 16:59 -2.31764 38.18427 26963 ft 465 kts 134°
2026-04-21 16:59 -2.34062 38.20720 26960 ft 468 kts 134°
2026-04-21 17:00 -2.36363 38.23018 26956 ft 470 kts 134°
2026-04-21 17:00 -2.38692 38.25342 26950 ft 472 kts 134°
2026-04-21 17:00 -2.40266 38.26914 26950 ft 473 kts 134°
2026-04-21 17:00 -2.43358 38.30000 26950 ft 475 kts 134°
2026-04-21 17:01 -2.45699 38.32338 26946 ft 477 kts 134°
2026-04-21 17:01 -2.48052 38.34687 26945 ft 478 kts 134°
2026-04-21 17:01 -2.50406 38.37038 26945 ft 479 kts 134°
2026-04-21 17:01 -2.52763 38.39391 26939 ft 480 kts 134°
2026-04-21 17:02 -2.55122 38.41748 26939 ft 481 kts 134°
2026-04-21 17:02 -2.57496 38.44118 26936 ft 481 kts 134°
2026-04-21 17:02 -2.59860 38.46480 26935 ft 482 kts 134°
2026-04-21 17:02 -2.62238 38.48855 26936 ft 483 kts 134°
2026-04-21 17:03 -2.64615 38.51228 26929 ft 483 kts 134°
2026-04-21 17:03 -2.66989 38.53600 26930 ft 483 kts 134°
2026-04-21 17:03 -2.69371 38.55979 26927 ft 484 kts 134°
2026-04-21 17:03 -2.71754 38.58360 26924 ft 484 kts 134°
2026-04-21 17:04 -2.74138 38.60742 26840 ft 483 kts 134°
2026-04-21 17:04 -2.76482 38.63081 26356 ft 472 kts 134°
2026-04-21 17:04 -2.78772 38.65369 25527 ft 471 kts 134°
2026-04-21 17:04 -2.81089 38.67685 24923 ft 465 kts 134°
2026-04-21 17:05 -2.83330 38.69924 24712 ft 449 kts 134°
2026-04-21 17:05 -2.85542 38.72135 23952 ft 449 kts 134°
2026-04-21 17:05 -2.87745 38.74338 23265 ft 447 kts 134°
2026-04-21 17:05 -2.89939 38.76531 22478 ft 444 kts 134°
2026-04-21 17:06 -2.92119 38.78710 21715 ft 442 kts 134°
2026-04-21 17:06 -2.94284 38.80875 20963 ft 438 kts 134°
2026-04-21 17:06 -2.96415 38.83004 20224 ft 427 kts 134°
2026-04-21 17:06 -2.98488 38.85076 19513 ft 417 kts 134°
2026-04-21 17:07 -3.00519 38.87106 18807 ft 409 kts 134°
2026-04-21 17:07 -3.02512 38.89099 18123 ft 401 kts 134°
2026-04-21 17:07 -3.04468 38.91055 17425 ft 392 kts 134°
2026-04-21 17:07 -3.06352 38.92939 17187 ft 373 kts 134°
2026-04-21 17:08 -3.08136 38.94722 17049 ft 353 kts 134°
2026-04-21 17:08 -3.09868 38.96455 16948 ft 351 kts 134°
2026-04-21 17:08 -3.11587 38.98175 16908 ft 348 kts 134°
2026-04-21 17:08 -3.13295 38.99885 16908 ft 348 kts 134°
2026-04-21 17:09 -3.16720 39.03312 16905 ft 349 kts 134°
2026-04-21 17:09 -3.18438 39.05032 16904 ft 349 kts 134°
2026-04-21 17:09 -3.20152 39.06747 16902 ft 348 kts 134°
2026-04-21 17:10 -3.21861 39.08457 16908 ft 348 kts 134°
2026-04-21 17:10 -3.23579 39.10176 16902 ft 348 kts 134°
2026-04-21 17:10 -3.25295 39.11881 16902 ft 348 kts 134°
2026-04-21 17:10 -3.27036 39.13562 16900 ft 348 kts 135°
2026-04-21 17:11 -3.28787 39.15234 16895 ft 346 kts 135°
2026-04-21 17:11 -3.30510 39.16874 16579 ft 338 kts 135°
2026-04-21 17:11 -3.32205 39.18489 16038 ft 336 kts 135°
2026-04-21 17:11 -3.33898 39.20106 15330 ft 338 kts 135°
2026-04-21 17:12 -3.35599 39.21733 14716 ft 337 kts 135°
2026-04-21 17:12 -3.37285 39.23346 14188 ft 333 kts 135°
2026-04-21 17:12 -3.38946 39.24937 13672 ft 330 kts 135°
2026-04-21 17:12 -3.40598 39.26519 13078 ft 327 kts 135°
2026-04-21 17:13 -3.42234 39.28087 12490 ft 324 kts 135°
2026-04-21 17:13 -3.43858 39.29644 11941 ft 321 kts 135°
2026-04-21 17:13 -3.45461 39.31181 11388 ft 319 kts 135°
2026-04-21 17:13 -3.47057 39.32711 10846 ft 316 kts 135°
2026-04-21 17:14 -3.48635 39.34224 10320 ft 314 kts 135°
2026-04-21 17:14 -3.50216 39.35723 9795 ft 311 kts 139°
2026-04-21 17:14 -3.52085 39.36797 9200 ft 311 kts 155°
2026-04-21 17:14 -3.54004 39.37766 8653 ft 307 kts 147°
2026-04-21 17:15 -3.55721 39.39018 8100 ft 304 kts 138°
2026-04-21 17:15 -3.57195 39.40518 7556 ft 301 kts 129°
2026-04-21 17:15 -3.58394 39.42226 7011 ft 300 kts 120°
2026-04-21 17:15 -3.59290 39.44102 6506 ft 298 kts 111°
2026-04-21 17:16 -3.59972 39.46051 5973 ft 296 kts 109°
2026-04-21 17:16 -3.60609 39.48006 5426 ft 295 kts 109°
2026-04-21 17:16 -3.61151 39.49700 5011 ft 292 kts 109°
2026-04-21 17:16 -3.61761 39.51627 4618 ft 286 kts 109°
2026-04-21 17:17 -3.62328 39.53443 4524 ft 270 kts 109°
2026-04-21 17:17 -3.62860 39.55175 4414 ft 256 kts 109°
2026-04-21 17:17 -3.63368 39.56848 4316 ft 242 kts 109°
2026-04-21 17:17 -3.63957 39.58368 4220 ft 228 kts 117°
2026-04-21 17:18 -3.64637 39.59759 4130 ft 216 kts 118°
2026-04-21 17:18 -3.65295 39.61080 3928 ft 210 kts 118°
2026-04-21 17:18 -3.65947 39.62389 3651 ft 208 kts 119°
2026-04-21 17:18 -3.66559 39.63634 3579 ft 191 kts 118°
2026-04-21 17:19 -3.67127 39.64796 3357 ft 184 kts 119°
2026-04-21 17:19 -3.67683 39.65944 3018 ft 182 kts 119°
2026-04-21 17:19 -3.68226 39.67087 2620 ft 182 kts 118°
2026-04-21 17:19 -3.68762 39.68227 2265 ft 178 kts 119°
2026-04-21 17:20 -3.69293 39.69379 2258 ft 186 kts 119°
2026-04-21 17:20 -3.69863 39.70530 2208 ft 182 kts 127°
2026-04-21 17:20 -3.70648 39.71476 2209 ft 176 kts 141°
2026-04-21 17:20 -3.71659 39.72160 2199 ft 175 kts 156°
2026-04-21 17:21 -3.72810 39.72532 2199 ft 175 kts 170°
2026-04-21 17:21 -3.74019 39.72613 2207 ft 174 kts 179°
2026-04-21 17:21 -3.75233 39.72631 2204 ft 173 kts 179°
2026-04-21 17:21 -3.76441 39.72648 2192 ft 174 kts 179°
2026-04-21 17:22 -3.77245 39.72655 2202 ft 175 kts 179°
2026-04-21 17:22 -3.78875 39.72658 2203 ft 176 kts 186°
2026-04-21 17:22 -3.80028 39.72250 2214 ft 177 kts 201°
2026-04-21 17:22 -3.81156 39.71748 2222 ft 178 kts 203°
2026-04-21 17:23 -3.82275 39.71182 2211 ft 180 kts 205°
2026-04-21 17:23 -3.83378 39.70590 2217 ft 181 kts 206°
2026-04-21 17:23 -3.84477 39.69986 2200 ft 180 kts 207°
2026-04-21 17:23 -3.85572 39.69379 2221 ft 179 kts 206°
2026-04-21 17:24 -3.86657 39.68776 2217 ft 178 kts 207°
2026-04-21 17:24 -3.87739 39.68175 2213 ft 178 kts 206°
2026-04-21 17:24 -3.88818 39.67576 2225 ft 177 kts 206°
2026-04-21 17:24 -3.89883 39.66984 2223 ft 177 kts 206°
2026-04-21 17:25 -3.90979 39.66374 2228 ft 178 kts 206°
2026-04-21 17:25 -3.92048 39.65781 2220 ft 178 kts 207°
2026-04-21 17:25 -3.93141 39.65173 2010 ft 175 kts 207°
2026-04-21 17:25 -3.94160 39.64605 1784 ft 160 kts 207°
2026-04-21 17:26 -3.95092 39.64088 1603 ft 147 kts 206°
2026-04-21 17:26 -3.95961 39.63605 1414 ft 142 kts 205°
2026-04-21 17:26 -3.96813 39.63132 1276 ft 138 kts 205°
2026-04-21 17:26 -3.97646 39.62670 1073 ft 137 kts 207°
2026-04-21 17:27 -3.98478 39.62207 920 ft 136 kts 208°
2026-04-21 17:27 -3.99300 39.61750 764 ft 135 kts 207°
2026-04-21 17:27 -4.00120 39.61290 517 ft 134 kts 207°
2026-04-21 17:27 -4.00923 39.60841 409 ft 138 kts 207°
2026-04-21 17:28 -4.01785 39.60384 224 ft 134 kts 206°
2026-04-21 17:28 -4.02502 39.59980 204 ft 96 kts 211°
2026-04-21 17:28 -4.02954 39.59727 210 ft 65 kts 209°
2026-04-21 17:28 -4.03314 39.59526 204 ft 47 kts 208°
2026-04-21 17:29 -4.03492 39.59435 208 ft 18 kts 179°
2026-04-21 17:29 -4.03598 39.59491 208 ft 17 kts 148°
2026-04-21 17:29 -4.03585 39.59569 210 ft 13 kts 36°
2026-04-21 17:29 -4.03510 39.59615 213 ft 13 kts 30°
2026-04-21 17:30 -4.03434 39.59657 211 ft 12 kts 29°
2026-04-21 17:30 -4.03361 39.59698 211 ft 12 kts 29°
2026-04-21 17:30 -4.03318 39.59753 207 ft 11 kts 104°
2026-04-21 17:30 -4.03324 39.59836 208 ft 13 kts 88°
2026-04-21 17:31 -4.03323 39.59938 209 ft 16 kts 90°
2026-04-21 17:31 -4.03310 39.60047 204 ft 14 kts 49°
2026-04-21 17:31 -4.03216 39.60103 207 ft 17 kts 28°
2026-04-21 17:31 -4.03103 39.60165 204 ft 20 kts 27°
2026-04-21 17:32 -4.03048 39.60197 204 ft 8 kts 50°
2026-04-21 17:32 -4.03058 39.60251 213 ft 5 kts 116°
2026-04-21 17:32 -4.03067 39.60267 207 ft 2 kts 118°
2026-04-21 17:32 -4.03070 39.60274 206 ft 0 kts 118°